FW0450 Weather Reports


time (UTC)temp
C
wind
direction
speed
KPH
gust
KPH
rain 1hr
cm
rain 24hr
cm
rain mn
cm
humidity
%
barometer
mb
20181211173007 13 320 4.8 6.4 0.00 0.00 0.00 88 1024.1
20181211172506 13 315 4.8 6.4 0.00 0.00 0.00 87 1024.0
20181211172007 13 314 4.8 6.4 0.00 0.00 0.00 86 1024.1
20181211160005 14 242 4.8 6.4 0.00 0.00 0.00 82 1022.0
20181211155505 14 256 6.4 6.4 0.00 0.00 0.00 82 1022.1
20181211155005 14 272 4.8 6.4 0.00 0.00 0.00 81 1022.1
20181211154505 14 269 4.8 6.4 0.00 0.00 0.00 81 1021.9
20181211154005 14 270 6.4 6.4 0.00 0.00 0.00 80 1021.9
20181211153504 14 279 6.4 6.4 0.00 0.00 0.00 80 1022.0
20181211153004 15 277 4.8 6.4 0.00 0.00 0.00 79 1021.9
20181211152504 15 270 3.2 4.8 0.00 0.00 0.00 78 1021.8
20181211152005 15 232 1.6 3.2 0.00 0.00 0.00 79 1021.8
20181211151505 15 166 1.6 3.2 0.00 0.00 0.00 80 1021.7
20181211151005 15 103 3.2 4.8 0.00 0.00 0.00 80 1021.8
20181211150505 15 109 3.2 4.8 0.00 0.00 0.00 80 1021.7
20181211150005 15 62 3.2 6.4 0.00 0.00 0.00 79 1021.8
20181211145505 15 60 3.2 6.4 0.00 0.00 0.00 79 1021.7
20181211145005 15 170 1.6 3.2 0.00 0.00 0.00 79 1021.7
20181211144504 15 225 1.6 3.2 0.00 0.00 0.00 79 1021.7
20181211144004 15 208 1.6 3.2 0.00 0.00 0.00 79 1021.6
20181211143504 15 205 3.2 4.8 0.00 0.00 0.00 79 1021.4
20181211143005 15 218 3.2 4.8 0.00 0.00 0.00 79 1021.4
20181211142505 15 225 3.2 4.8 0.00 0.00 0.00 79 1021.5
20181211142007 15 225 3.2 3.2 0.00 0.00 0.00 79 1021.6
20181211141505 14 174 3.2 4.8 0.00 0.00 0.00 79 1021.8
20181211141005 14 177 4.8 4.8 0.00 0.00 0.00 79 1021.9
20181211140505 14 193 4.8 6.4 0.00 0.00 0.00 79 1022.0
20181211140005 14 188 4.8 6.4 0.00 0.00 0.00 80 1021.9
20181211135505 14 183 4.8 6.4 0.00 0.00 0.00 79 1021.9
20181211135005 14 208 4.8 6.4 0.00 0.00 0.00 78 1021.9
20181211134505 14 228 6.4 6.4 0.00 0.00 0.00 77 1022.0
20181211134005 14 214 6.4 8.0 0.00 0.00 0.00 76 1022.1
20181211133505 14 213 6.4 8.0 0.00 0.00 0.00 75 1022.1
20181211133005 15 244 4.8 6.4 0.00 0.00 0.00 75 1022.2
20181211132505 15 233 4.8 6.4 0.00 0.00 0.00 74 1022.3
20181211132005 14 214 4.8 6.4 0.00 0.00 0.00 75 1022.3
20181211131505 14 214 4.8 6.4 0.00 0.00 0.00 75 1022.3
20181211131006 14 196 4.8 6.4 0.00 0.00 0.00 75 1022.1
20181211130505 15 174 4.8 6.4 0.00 0.00 0.00 74 1022.4
20181211130006 15 177 3.2 6.4 0.00 0.00 0.00 74 1022.4
20181211125505 15 192 3.2 6.4 0.00 0.00 0.00 74 1022.4
20181211125006 14 202 4.8 6.4 0.00 0.00 0.00 74 1022.5
20181211124505 14 205 4.8 6.4 0.00 0.00 0.00 74 1022.5
20181211124005 14 202 4.8 6.4 0.00 0.00 0.00 74 1022.6
20181211123505 14 189 3.2 4.8 0.00 0.00 0.00 75 1022.5
20181211123005 13 174 4.8 6.4 0.00 0.00 0.00 76 1022.5
20181211122505 13 161 6.4 6.4 0.00 0.00 0.00 76 1022.3
20181211122005 13 152 6.4 6.4 0.00 0.00 0.00 76 1022.3
20181211121505 13 147 6.4 8.0 0.00 0.00 0.00 77 1022.4
20181211121005 13 149 8.0 9.7 0.00 0.00 0.00 77 1022.3
20181211120505 13 146 8.0 9.7 0.00 0.00 0.00 77 1022.3
20181211120006 13 139 9.7 12.9 0.00 0.00 0.00 77 1022.3
20181211115505 13 142 9.7 12.9 0.00 0.00 0.00 77 1022.4
20181211115005 13 135 9.7 12.9 0.00 0.00 0.00 77 1022.5
20181211114505 13 138 9.7 11.3 0.00 0.00 0.00 77 1022.5
20181211114005 13 139 9.7 11.3 0.00 0.00 0.00 77 1022.4
20181211113505 13 127 9.7 11.3 0.00 0.00 0.00 77 1022.5
20181211113005 12 122 9.7 11.3 0.00 0.00 0.00 77 1022.6
20181211112505 12 119 9.7 11.3 0.00 0.00 0.00 77 1022.7
20181211112006 12 122 9.7 12.9 0.00 0.00 0.00 77 1022.6
20181211111505 12 128 11.3 12.9 0.00 0.00 0.00 77 1022.6
20181211111005 12 132 9.7 12.9 0.00 0.00 0.00 78 1022.7
20181211110505 12 124 9.7 12.9 0.00 0.00 0.00 78 1022.8
20181211110005 12 115 9.7 11.3 0.00 0.00 0.00 78 1022.8
20181211105505 12 122 9.7 11.3 0.00 0.00 0.00 78 1023.0
20181211105005 12 129 9.7 11.3 0.00 0.00 0.00 78 1023.1
20181211104506 12 133 9.7 11.3 0.00 0.00 0.00 79 1022.9
20181211104005 12 135 9.7 11.3 0.00 0.03 0.00 79 1022.9
20181211103506 12 133 9.7 11.3 0.00 0.03 0.00 81 1022.9
20181211103007 12 133 11.3 11.3 0.00 0.03 0.00 81 1022.9
20181211102505 12 131 9.7 11.3 0.00 0.03 0.00 81 1022.8
20181211102005 12 128 9.7 11.3 0.00 0.03 0.00 81 1023.1
20181211101506 12 137 9.7 12.9 0.00 0.03 0.00 80 1023.0
20181211101006 12 139 11.3 12.9 0.00 0.03 0.00 80 1022.9
20181211100505 11 129 9.7 12.9 0.00 0.03 0.00 81 1022.9
20181211100006 11 125 9.7 11.3 0.00 0.03 0.00 80 1022.9
20181211095506 11 125 9.7 11.3 0.00 0.03 0.00 80 1022.8
20181211095006 11 129 9.7 12.9 0.00 0.03 0.00 80 1022.7
20181211094506 11 134 11.3 12.9 0.00 0.03 0.00 80 1022.4
20181211094006 11 131 11.3 12.9 0.00 0.03 0.00 80 1022.4
20181211093506 11 124 11.3 12.9 0.00 0.03 0.00 80 1022.3
20181211093006 11 120 11.3 12.9 0.00 0.03 0.00 80 1022.4
20181211092505 11 122 11.3 11.3 0.00 0.03 0.00 80 1022.2
20181211092006 11 130 11.3 16.1 0.00 0.03 0.00 79 1022.3
20181211091505 11 144 12.9 16.1 0.00 0.03 0.00 78 1022.0
20181211091006 11 144 12.9 14.5 0.00 0.03 0.00 78 1022.0
20181211090506 11 140 11.3 12.9 0.00 0.03 0.00 78 1022.1
20181211090006 11 137 11.3 12.9 0.00 0.03 0.00 78 1022.0
20181211085505 11 121 11.3 12.9 0.00 0.03 0.00 78 1022.0
20181211085006 10 125 12.9 14.5 0.00 0.03 0.00 77 1021.9
20181211084505 10 128 12.9 14.5 0.00 0.03 0.00 76 1021.7
20181211084005 10 127 14.5 16.1 0.00 0.03 0.00 76 1021.6
20181211083505 10 123 14.5 16.1 0.00 0.03 0.00 76 1021.6
20181211083005 10 114 14.5 16.1 0.00 0.03 0.00 76 1021.6
20181211082506 10 113 14.5 17.7 0.00 0.03 0.00 76 1021.3
20181211082006 10 123 14.5 17.7 0.00 0.03 0.00 75 1021.3
20181211081505 10 134 16.1 17.7 0.00 0.03 0.00 75 1021.3
20181211081005 10 132 17.7 20.9 0.00 0.03 0.00 74 1021.3
20181211080505 10 132 17.7 20.9 0.00 0.03 0.00 74 1021.3
20181211080005 10 132 17.7 17.7 0.00 0.03 0.00 74 1021.1
20181211075506 10 134 17.7 17.7 0.00 0.03 0.00 74 1021.2
20181211075006 10 140 16.1 17.7 0.00 0.03 0.00 74 1021.3
20181211074506 10 140 16.1 17.7 0.00 0.03 0.00 73 1021.0
20181211074005 10 131 16.1 17.7 0.00 0.03 0.00 73 1021.0
20181211073505 10 116 14.5 17.7 0.00 0.03 0.00 73 1021.3
20181211073006 10 104 14.5 17.7 0.00 0.03 0.00 73 1021.0
20181211072505 10 106 16.1 17.7 0.00 0.03 0.00 73 1021.1
20181211072006 10 118 14.5 17.7 0.00 0.03 0.00 72 1020.9
20181211071505 10 129 16.1 19.3 0.00 0.03 0.00 72 1020.8
20181211071006 10 133 17.7 19.3 0.00 0.03 0.00 72 1020.8
20181211070505 10 136 17.7 17.7 0.00 0.03 0.00 71 1020.9
20181211070006 10 141 17.7 17.7 0.00 0.03 0.00 71 1020.9
20181211065505 10 139 17.7 19.3 0.00 0.03 0.00 71 1020.6
20181211065005 10 141 17.7 20.9 0.00 0.03 0.00 71 1020.7
20181211064506 10 144 19.3 20.9 0.00 0.03 0.00 71 1020.7
20181211064006 10 140 17.7 20.9 0.00 0.03 0.00 71 1020.5
20181211063506 10 136 17.7 19.3 0.00 0.03 0.00 71 1020.6
20181211063006 11 126 16.1 19.3 0.00 0.03 0.00 71 1020.4
20181211062506 11 127 16.1 20.9 0.00 0.03 0.00 71 1020.4
20181211062006 11 133 17.7 20.9 0.00 0.03 0.00 70 1020.4
20181211061506 11 120 17.7 19.3 0.00 0.03 0.00 70 1020.3
20181211061006 11 99 16.1 19.3 0.00 0.03 0.00 70 1020.2
20181211060506 11 108 16.1 17.7 0.00 0.03 0.00 70 1020.0
20181211060006 11 134 16.1 17.7 0.00 0.03 0.00 70 1020.0
20181211055506 11 135 16.1 17.7 0.00 0.03 0.00 70 1019.9
20181211055006 11 126 17.7 20.9 0.00 0.03 0.00 70 1019.8
20181211054506 11 127 19.3 22.5 0.00 0.03 0.00 70 1020.0
20181211054006 11 131 19.3 25.7 0.00 0.03 0.00 70 1019.8
20181211053506 11 132 20.9 25.7 0.00 0.03 0.00 69 1019.8
20181211053006 11 133 20.9 25.7 0.00 0.03 0.00 68 1019.8
20181211052506 11 130 19.3 24.1 0.00 0.03 0.00 68 1019.9
20181211052005 11 130 17.7 24.1 0.00 0.03 0.00 68 1019.9
20181211051505 11 144 16.1 17.7 0.00 0.03 0.00 69 1020.0
20181211051006 11 144 16.1 17.7 0.00 0.03 0.00 68 1020.2
20181211050505 11 144 16.1 17.7 0.00 0.03 0.00 66 1020.1
20181211050007 11 153 14.5 17.7 0.00 0.03 0.00 66 1020.1
20181211045507 11 144 12.9 14.5 0.00 0.03 0.00 66 1020.1
20181211045006 11 141 14.5 16.1 0.00 0.03 0.00 65 1020.0
20181211044506 11 147 14.5 17.7 0.00 0.03 0.00 65 1020.0
20181211044007 11 148 14.5 22.5 0.00 0.03 0.00 64 1020.0
20181211043506 12 153 17.7 22.5 0.00 0.03 0.00 63 1020.0
20181211043006 12 150 16.1 22.5 0.00 0.03 0.00 63 1020.0
20181211042506 12 143 12.9 16.1 0.00 0.03 0.00 63 1020.0
20181211042006 12 149 14.5 17.7 0.00 0.03 0.00 62 1019.9
20181211041506 12 139 16.1 19.3 0.00 0.03 0.00 62 1019.8
20181211041006 12 133 16.1 19.3 0.00 0.03 0.00 62 1019.8
20181211040506 12 132 16.1 17.7 0.00 0.03 0.00 59 1019.7
20181211040006 12 125 16.1 17.7 0.00 0.03 0.00 58 1019.7
20181211035506 12 123 17.7 20.9 0.00 0.03 0.00 58 1019.8
20181211035007 12 124 19.3 22.5 0.00 0.03 0.00 58 1019.9
20181211034506 12 123 19.3 22.5 0.00 0.03 0.00 57 1019.7
20181211034006 13 125 19.3 24.1 0.00 0.03 0.00 56 1019.9
20181211033506 13 131 19.3 24.1 0.00 0.03 0.00 56 1019.9
20181211033006 13 135 17.7 19.3 0.00 0.03 0.00 56 1020.0
20181211032505 13 127 17.7 20.9 0.00 0.03 0.00 56 1020.2
20181211032006 13 133 16.1 20.9 0.00 0.03 0.00 57 1020.2
20181211031506 13 145 12.9 17.7 0.00 0.03 0.00 57 1020.4
20181211031007 13 136 12.9 14.5 0.00 0.03 0.00 57 1020.4
20181211030507 13 122 14.5 17.7 0.00 0.03 0.00 57 1020.2
20181211030006 13 120 14.5 17.7 0.00 0.03 0.00 57 1020.4
20181211025506 13 129 14.5 17.7 0.00 0.03 0.00 57 1020.3
20181211025007 13 124 16.1 17.7 0.00 0.03 0.00 57 1020.4
20181211024506 13 119 14.5 17.7 0.00 0.03 0.00 57 1020.3
20181211024006 13 123 14.5 17.7 0.00 0.03 0.00 57 1020.2
20181211023506 13 123 12.9 16.1 0.00 0.03 0.00 56 1020.4
20181211023006 13 125 12.9 14.5 0.00 0.03 0.00 56 1020.4
20181211022506 13 129 12.9 14.5 0.00 0.03 0.00 55 1020.6
20181211022006 13 128 14.5 17.7 0.00 0.03 0.00 55 1020.7
20181211021506 13 119 14.5 17.7 0.00 0.03 0.00 55 1020.8
20181211021006 13 123 14.5 17.7 0.00 0.03 0.00 54 1020.9
20181211020506 13 139 14.5 17.7 0.00 0.03 0.00 54 1021.0
20181211020007 13 145 14.5 17.7 0.00 0.03 0.00 54 1021.0
20181211015506 13 147 14.5 17.7 0.00 0.03 0.00 54 1020.9
20181211015006 13 148 14.5 17.7 0.00 0.03 0.00 54 1021.0
20181211014505 13 135 14.5 17.7 0.00 0.03 0.00 54 1020.9
20181211014006 14 129 16.1 17.7 0.00 0.03 0.00 54 1021.0
20181211013506 14 144 14.5 17.7 0.00 0.03 0.00 54 1021.0
20181211013006 14 149 12.9 14.5 0.00 0.03 0.00 54 1021.1
20181211012506 14 148 12.9 16.1 0.00 0.03 0.00 54 1021.2
20181211012006 14 149 14.5 16.1 0.00 0.03 0.00 54 1021.3
20181211011508 14 147 12.9 16.1 0.00 0.03 0.00 55 1021.4
20181211011007 13 153 12.9 14.5 0.00 0.03 0.00 55 1021.3
20181211010506 14 152 11.3 12.9 0.00 0.03 0.00 54 1021.4
20181211010007 14 139 11.3 12.9 0.00 0.03 0.00 54 1021.4
20181211005507 14 138 11.3 12.9 0.00 0.03 0.00 54 1021.4
20181211005007 14 138 11.3 14.5 0.00 0.03 0.00 53 1021.3
20181211004507 14 125 12.9 16.1 0.00 0.03 0.00 53 1021.3
20181211004006 14 122 14.5 17.7 0.00 0.03 0.00 53 1021.3
20181211003506 15 125 14.5 17.7 0.00 0.03 0.00 52 1021.3
20181211003007 15 131 16.1 19.3 0.00 0.03 0.00 52 1021.3
20181211002506 15 135 17.7 19.3 0.00 0.03 0.00 52 1021.3
20181211002006 15 124 16.1 17.7 0.00 0.03 0.00 52 1021.4
20181211001506 14 107 16.1 17.7 0.00 0.03 0.00 53 1021.3
20181211001007 14 104 16.1 17.7 0.00 0.03 0.00 53 1021.5
20181211000507 14 108 16.1 17.7 0.00 0.03 0.00 53 1021.5
20181211000012 14 114 12.9 16.1 0.00 0.03 0.00 53 1021.5
20181210235506 14 116 12.9 14.5 0.00 0.03 0.03 53 1021.4
20181210235007 14 120 12.9 14.5 0.00 0.03 0.03 53 1021.5
20181210234507 14 118 12.9 12.9 0.00 0.03 0.03 53 1021.5
20181210234006 14 110 12.9 12.9 0.00 0.03 0.03 53 1021.7
20181210233506 14 116 12.9 12.9 0.00 0.03 0.03 53 1021.8
20181210233006 14 118 11.3 12.9 0.00 0.03 0.03 53 1021.7
20181210232506 14 109 11.3 12.9 0.00 0.03 0.03 53 1021.7
20181210232006 15 104 11.3 14.5 0.00 0.03 0.03 53 1021.6
20181210231506 15 121 12.9 16.1 0.00 0.03 0.03 52 1021.7
20181210231006 15 135 11.3 16.1 0.00 0.03 0.03 52 1021.9
20181210230506 15 131 11.3 14.5 0.00 0.03 0.03 52 1021.9
20181210230006 15 129 12.9 16.1 0.00 0.03 0.03 52 1021.9
20181210225506 15 128 14.5 16.1 0.00 0.03 0.03 51 1022.0
20181210225007 15 115 12.9 16.1 0.00 0.03 0.03 52 1021.8
20181210224507 15 104 12.9 14.5 0.00 0.03 0.03 51 1021.8
20181210224006 15 102 11.3 12.9 0.00 0.03 0.03 52 1021.7
20181210223506 15 117 12.9 14.5 0.00 0.03 0.03 52 1021.7
20181210223007 15 124 12.9 17.7 0.00 0.03 0.03 51 1021.8
20181210222507 15 107 14.5 17.7 0.00 0.03 0.03 51 1021.8
20181210222007 15 98 16.1 20.9 0.00 0.03 0.03 51 1021.8
20181210221507 15 111 16.1 20.9 0.00 0.03 0.03 51 1021.9
20181210221006 15 128 17.7 20.9 0.00 0.03 0.03 51 1021.9
20181210220507 15 128 17.7 22.5 0.00 0.03 0.03 51 1021.9
20181210220007 15 122 16.1 22.5 0.00 0.03 0.03 51 1022.1
20181210215506 15 112 16.1 17.7 0.00 0.03 0.03 51 1021.9
20181210215007 15 104 16.1 17.7 0.00 0.03 0.03 51 1022.1
20181210214507 15 103 17.7 20.9 0.00 0.03 0.03 51 1021.9
20181210214007 15 96 19.3 20.9 0.00 0.03 0.03 51 1022.1
20181210213506 15 100 19.3 20.9 0.00 0.03 0.03 50 1022.0
20181210213007 15 113 19.3 22.5 0.00 0.03 0.03 50 1022.0
20181210212506 15 119 19.3 22.5 0.00 0.03 0.03 50 1022.0
20181210212007 16 115 19.3 22.5 0.00 0.03 0.03 50 1022.1
20181210211507 16 117 19.3 20.9 0.00 0.03 0.03 50 1022.1
20181210211007 16 115 19.3 22.5 0.00 0.03 0.03 50 1022.1
20181210210506 16 103 17.7 22.5 0.00 0.03 0.03 51 1022.0
20181210210007 15 99 17.7 17.7 0.00 0.03 0.03 51 1021.9
20181210205507 15 102 17.7 20.9 0.00 0.03 0.03 51 1022.1
20181210205007 15 109 19.3 24.1 0.00 0.03 0.03 51 1022.0
20181210204506 15 118 19.3 24.1 0.00 0.03 0.03 51 1022.0
20181210204007 15 126 17.7 20.9 0.00 0.03 0.03 52 1022.2
20181210203506 15 113 16.1 17.7 0.00 0.03 0.03 52 1022.0
20181210203007 15 106 16.1 17.7 0.00 0.03 0.03 53 1022.1
20181210202506 15 117 16.1 17.7 0.00 0.03 0.03 53 1022.3
20181210202007 15 122 14.5 17.7 0.00 0.03 0.03 54 1022.2
20181210201507 15 121 16.1 17.7 0.00 0.03 0.03 55 1022.3
20181210201007 15 129 16.1 17.7 0.00 0.03 0.03 55 1022.2
20181210200507 15 123 16.1 17.7 0.00 0.03 0.03 57 1022.3
20181210200007 15 116 17.7 19.3 0.00 0.03 0.03 57 1022.3
20181210195506 15 120 19.3 22.5 0.00 0.03 0.03 58 1022.4
20181210195007 15 125 19.3 22.5 0.00 0.03 0.03 60 1022.3
20181210194507 15 126 17.7 20.9 0.00 0.03 0.03 60 1022.3
20181210194007 15 122 16.1 17.7 0.00 0.03 0.03 60 1022.4
20181210193506 15 121 16.1 17.7 0.00 0.03 0.03 60 1022.4
20181210193007 15 123 17.7 17.7 0.00 0.03 0.03 60 1022.4
20181210192506 15 123 17.7 17.7 0.00 0.03 0.03 60 1022.5
20181210192007 16 122 17.7 20.9 0.00 0.03 0.03 59 1022.4
20181210191506 16 126 17.7 20.9 0.00 0.03 0.03 60 1022.6
20181210191006 15 132 19.3 20.9 0.00 0.03 0.03 60 1022.5
20181210190506 16 131 17.7 19.3 0.00 0.03 0.03 60 1022.5
20181210190007 16 126 17.7 19.3 0.00 0.03 0.03 60 1022.5
20181210185506 16 124 17.7 19.3 0.00 0.03 0.03 59 1022.7
20181210185006 16 128 16.1 17.7 0.00 0.03 0.03 58 1022.5
20181210184506 16 129 14.5 17.7 0.00 0.03 0.03 58 1022.7
20181210184007 16 120 16.1 17.7 0.00 0.03 0.03 57 1022.6
20181210183507 16 116 16.1 17.7 0.00 0.03 0.03 58 1022.6
20181210183008 16 121 16.1 17.7 0.00 0.03 0.03 58 1022.7
20181210182507 16 124 16.1 17.7 0.00 0.03 0.03 59 1022.5
20181210182007 16 124 16.1 17.7 0.00 0.03 0.03 59 1022.6
20181210181507 16 118 16.1 17.7 0.00 0.03 0.03 60 1022.6
20181210181007 16 117 16.1 17.7 0.00 0.03 0.03 60 1022.7
20181210180506 16 109 16.1 17.7 0.00 0.03 0.03 60 1022.6
20181210180007 16 105 16.1 17.7 0.00 0.03 0.03 60 1022.6
20181210175507 16 112 14.5 17.7 0.00 0.03 0.03 60 1022.5
20181210175007 16 120 16.1 17.7 0.00 0.03 0.03 59 1022.5
20181210174507 17 114 16.1 19.3 0.00 0.03 0.03 58 1022.5
20181210174007 17 110 17.7 19.3 0.00 0.03 0.03 57 1022.5
20181210173507 17 118 16.1 17.7 0.00 0.03 0.03 57 1022.6